• In Belgium
  • List of Countries
  • For 7 days
  • Water Temperature
  • Satellite Maps
  • Weather Map
  • Weather Widgets
  • user-avatar
    Login

    Hourly Weather Amanzimtoti

    Today, 12 December, Tuesday

    Time Temperature Precipitation Wind Pressure Humidity
    00:00 +18°C° 0.1 mm 2 mps 755 mmHg 93%
    01:00 +18°C° 0.1 mm 2 mps 755 mmHg 93%
    02:00 +19°C° 0 mm 2 mps 754 mmHg 93%
    03:00 +18°C° 0.2 mm 2 mps 754 mmHg 93%
    04:00 +18°C° 0.2 mm 2 mps 754 mmHg 93%
    05:00 +18°C° 0.2 mm 2 mps 753 mmHg 93%
    06:00 +20°C° 0.1 mm 2 mps 753 mmHg 88%
    07:00 +23°C° 0.1 mm 2 mps 753 mmHg 82%
    08:00 +25°C° 0 mm 1 mps 753 mmHg 76%
    09:00 +26°C° 0 mm 2 mps 753 mmHg 74%
    10:00 +27°C° 0 mm 3 mps 752 mmHg 71%
    11:00 +28°C° 0 mm 3 mps 752 mmHg 68%
    12:00 +27°C° 0.1 mm 4 mps 752 mmHg 70%
    13:00 +27°C° 0.1 mm 5 mps 752 mmHg 71%
    14:00 +27°C° 0.1 mm 5 mps 752 mmHg 73%
    15:00 +26°C° 0.3 mm 5 mps 752 mmHg 79%
    16:00 +25°C° 0.3 mm 5 mps 752 mmHg 86%
    17:00 +22°C° 0.3 mm 5 mps 752 mmHg 92%
    18:00 +22°C° 0.5 mm 4 mps 753 mmHg 94%
    19:00 +22°C° 0.5 mm 4 mps 753 mmHg 95%
    20:00 +21°C° 0.5 mm 4 mps 754 mmHg 96%
    21:00 +21°C° 0.3 mm 4 mps 754 mmHg 96%
    22:00 +21°C° 0.3 mm 3 mps 754 mmHg 96%
    23:00 +21°C° 0.3 mm 3 mps 755 mmHg 96%

    Tomorrow, 13 December, Wednesday

    Time Temperature Precipitation Wind Pressure Humidity
    00:00 +21°C° 0.3 mm 3 mps 754 mmHg 96%
    01:00 +21°C° 0.3 mm 2 mps 754 mmHg 97%
    02:00 +22°C° 0.3 mm 1 mps 754 mmHg 97%
    03:00 +22°C° 0.1 mm 1 mps 754 mmHg 97%
    04:00 +22°C° 0.1 mm 1 mps 753 mmHg 97%
    05:00 +22°C° 0.1 mm 1 mps 752 mmHg 96%
    06:00 +21°C° 0.1 mm 2 mps 752 mmHg 95%
    07:00 +23°C° 0.1 mm 2 mps 752 mmHg 94%
    08:00 +22°C° 0.1 mm 3 mps 751 mmHg 92%
    09:00 +24°C° 0 mm 3 mps 751 mmHg 87%
    10:00 +26°C° 0 mm 3 mps 750 mmHg 82%
    11:00 +27°C° 0 mm 3 mps 749 mmHg 77%
    12:00 +28°C° 0 mm 4 mps 748 mmHg 77%
    13:00 +28°C° 0 mm 4 mps 748 mmHg 77%
    14:00 +29°C° 0 mm 4 mps 747 mmHg 78%
    15:00 +27°C° 0.1 mm 4 mps 747 mmHg 82%
    16:00 +26°C° 0.1 mm 3 mps 747 mmHg 87%
    17:00 +25°C° 0.1 mm 3 mps 747 mmHg 91%
    18:00 +25°C° 0.1 mm 3 mps 748 mmHg 93%
    19:00 +24°C° 0.1 mm 3 mps 749 mmHg 94%
    20:00 +24°C° 0.1 mm 3 mps 750 mmHg 96%
    21:00 +22°C° 0.2 mm 4 mps 751 mmHg 95%
    22:00 +22°C° 0.2 mm 5 mps 752 mmHg 95%
    23:00 +22°C° 0.2 mm 6 mps 752 mmHg 95%

    Day after tomorrow, 14 December, Thursday

    Time Temperature Precipitation Wind Pressure Humidity
    00:00 +21°C° 0.1 mm 6 mps 753 mmHg 94%
    01:00 +20°C° 0.1 mm 7 mps 753 mmHg 94%
    02:00 +20°C° 0.1 mm 7 mps 753 mmHg 93%
    03:00 +18°C° 0 mm 7 mps 754 mmHg 92%
    04:00 +18°C° 0 mm 8 mps 754 mmHg 91%
    05:00 +18°C° 0 mm 8 mps 755 mmHg 89%
    06:00 +18°C° 0 mm 8 mps 756 mmHg 85%
    07:00 +20°C° 0 mm 8 mps 756 mmHg 81%
    08:00 +20°C° 0 mm 8 mps 757 mmHg 78%
    09:00 +21°C° 0 mm 9 mps 757 mmHg 72%
    10:00 +22°C° 0 mm 9 mps 757 mmHg 67%
    11:00 +23°C° 0 mm 9 mps 758 mmHg 61%
    12:00 +23°C° 0 mm 9 mps 758 mmHg 60%
    13:00 +23°C° 0 mm 9 mps 757 mmHg 59%
    14:00 +23°C° 0 mm 8 mps 757 mmHg 57%
    15:00 +22°C° 0 mm 8 mps 757 mmHg 62%
    16:00 +21°C° 0 mm 7 mps 757 mmHg 67%
    17:00 +21°C° 0 mm 7 mps 757 mmHg 71%
    18:00 +20°C° 0.1 mm 6 mps 758 mmHg 76%
    19:00 +19°C° 0.1 mm 5 mps 759 mmHg 80%
    20:00 +19°C° 0.1 mm 4 mps 760 mmHg 84%
    21:00 +18°C° 0 mm 4 mps 760 mmHg 85%
    22:00 +18°C° 0 mm 3 mps 761 mmHg 86%
    23:00 +18°C° 0 mm 2 mps 761 mmHg 87%

    15 December, Friday

    Time Temperature Precipitation Wind Pressure Humidity
    00:00 +18°C° 0 mm 2 mps 761 mmHg 88%
    01:00 +19°C° 0 mm 1 mps 760 mmHg 89%
    02:00 +19°C° 0 mm 1 mps 760 mmHg 90%
    03:00 +18°C° 0 mm 1 mps 760 mmHg 91%
    04:00 +18°C° 0 mm 1 mps 760 mmHg 91%
    05:00 +18°C° 0 mm 1 mps 759 mmHg 92%
    06:00 +20°C° 0 mm 1 mps 760 mmHg 86%
    07:00 +20°C° 0 mm 2 mps 760 mmHg 81%
    08:00 +22°C° 0 mm 3 mps 760 mmHg 75%
    09:00 +24°C° 0 mm 3 mps 759 mmHg 72%
    10:00 +25°C° 0 mm 4 mps 759 mmHg 69%
    11:00 +26°C° 0 mm 4 mps 759 mmHg 65%
    12:00 +27°C° 0 mm 5 mps 758 mmHg 65%
    13:00 +27°C° 0 mm 5 mps 757 mmHg 64%
    14:00 +28°C° 0 mm 6 mps 757 mmHg 64%
    15:00 +27°C° 0 mm 6 mps 756 mmHg 68%
    16:00 +26°C° 0 mm 6 mps 756 mmHg 73%
    17:00 +26°C° 0 mm 6 mps 756 mmHg 77%
    18:00 +24°C° 0 mm 6 mps 757 mmHg 81%
    19:00 +22°C° 0 mm 5 mps 757 mmHg 86%
    20:00 +21°C° 0 mm 5 mps 758 mmHg 90%
    21:00 +21°C° 0 mm 5 mps 758 mmHg 92%
    22:00 +21°C° 0 mm 5 mps 758 mmHg 93%
    23:00 +20°C° 0 mm 6 mps 757 mmHg 95%

    16 December, Saturday

    Time Temperature Precipitation Wind Pressure Humidity
    00:00 +20°C° 0 mm 5 mps 757 mmHg 95%
    01:00 +20°C° 0 mm 5 mps 756 mmHg 95%
    02:00 +20°C° 0 mm 5 mps 755 mmHg 95%
    03:00 +20°C° 0 mm 6 mps 755 mmHg 95%
    04:00 +20°C° 0 mm 6 mps 755 mmHg 95%
    05:00 +19°C° 0 mm 6 mps 755 mmHg 95%
    06:00 +22°C° 0 mm 6 mps 754 mmHg 86%
    07:00 +26°C° 0 mm 6 mps 754 mmHg 76%
    08:00 +28°C° 0 mm 7 mps 754 mmHg 67%
    09:00 +32°C° 0 mm 7 mps 753 mmHg 60%
    10:00 +35°C° 0 mm 7 mps 752 mmHg 52%
    11:00 +39°C° 0 mm 7 mps 752 mmHg 44%
    12:00 +39°C° 0 mm 7 mps 751 mmHg 44%
    13:00 +40°C° 0 mm 7 mps 750 mmHg 44%
    14:00 +40°C° 0 mm 8 mps 750 mmHg 44%
    15:00 +39°C° 0 mm 8 mps 749 mmHg 49%
    16:00 +38°C° 0 mm 8 mps 749 mmHg 54%
    17:00 +37°C° 0 mm 8 mps 748 mmHg 59%
    18:00 +34°C° 0 mm 7 mps 749 mmHg 67%
    19:00 +30°C° 0 mm 7 mps 749 mmHg 75%
    20:00 +28°C° 0 mm 7 mps 750 mmHg 83%
    21:00 +28°C° 0 mm 7 mps 750 mmHg 81%
    22:00 +27°C° 0 mm 8 mps 751 mmHg 80%
    23:00 +27°C° 0 mm 8 mps 752 mmHg 78%

    17 December, Sunday

    Time Temperature Precipitation Wind Pressure Humidity
    00:00 +26°C° 0 mm 7 mps 752 mmHg 80%
    01:00 +24°C° 0 mm 6 mps 752 mmHg 82%
    02:00 +23°C° 0 mm 5 mps 753 mmHg 83%
    03:00 +23°C° 0 mm 5 mps 753 mmHg 85%
    04:00 +22°C° 0 mm 5 mps 753 mmHg 87%
    05:00 +22°C° 0 mm 5 mps 753 mmHg 88%
    06:00 +25°C° 0 mm 5 mps 754 mmHg 82%
    07:00 +27°C° 0 mm 5 mps 754 mmHg 76%
    08:00 +28°C° 0 mm 5 mps 754 mmHg 70%
    09:00 +29°C° 0 mm 6 mps 754 mmHg 68%
    10:00 +30°C° 0 mm 6 mps 754 mmHg 66%
    11:00 +32°C° 0 mm 6 mps 754 mmHg 64%
    12:00 +30°C° 0.1 mm 6 mps 754 mmHg 68%
    13:00 +29°C° 0.1 mm 6 mps 753 mmHg 72%
    14:00 +29°C° 0.1 mm 6 mps 753 mmHg 76%
    15:00 +27°C° 0.9 mm 6 mps 753 mmHg 82%
    16:00 +26°C° 0.9 mm 5 mps 753 mmHg 89%
    17:00 +25°C° 0.9 mm 5 mps 754 mmHg 95%
    18:00 +23°C° 1.2 mm 5 mps 754 mmHg 96%
    19:00 +23°C° 1.2 mm 5 mps 755 mmHg 96%
    20:00 +23°C° 1.2 mm 5 mps 756 mmHg 97%
    21:00 +23°C° 1.8 mm 5 mps 756 mmHg 97%
    22:00 +23°C° 1.8 mm 6 mps 757 mmHg 97%
    23:00 +22°C° 1.8 mm 6 mps 757 mmHg 97%
    Show more